Weather WX

World > North America > United States > Minnesota

Nevis, Minnesota Regional Weather

Lat: 46.97N, Lon: 94.84W
Wx Zone: MNZ024
Warning FLW WEATHER ALERT - (More Info. Click Here) Warning
Feedback

Nevis, MN Regional Weather

Expires:201906261400;;105646
ASUS43 KMPX 261310
RWRMN 
WEATHER ROUNDUP FOR MINNESOTA
NATIONAL WEATHER SERVICE TWIN CITIES/CHANHASSEN MN
800 AM CDT WED JUN 26 2019


NOTE: "FAIR" INDICATES FEW OR NO CLOUDS BELOW 12,000 FEET WITH NO
SIGNIFICANT WEATHER AND/OR OBSTRUCTIONS TO VISIBILITY. N/A MEANS
CURRENT SKY AND/OR WEATHER CONDITIONS ARE NOT AVAILABLE.


MNZ001>005-007-008-013>017-022>024-027-028-261400-
   Northwest Minnesota   
  
CITY           SKY/WX    TMP DP  RH WIND       PRES   REMARKS
BEMIDJI        FAIR      64  53  67 SW7       29.93R                  
HALLOCK        SUNNY     63  55  77 NW5       29.87S                  
ROSEAU         FAIR      64  55  72 W5          N/A                   
WARROAD        FAIR      63  57  82 SW8       29.88R                  
THIEF RVR FALL SUNNY     63  54  72 SW6       29.91S                  
CROOKSTON      SUNNY     63  57  82 S6        29.89S                  
FOSSTON        SUNNY     64  54  68 S3        29.92S                  
DETROIT LAKES  FAIR      66  54  63 SW5       29.96R                  
MOORHEAD       PTSUNNY   66  57  72 SW8       29.94R                  
PARK RAPIDS    FAIR      66  56  70 W5        29.95R                  
$$

SKY/WX - Weather  TMP - Temperature  DP - Dew Point  RH - Relative Humidity
WIND - Wind Direction/Speed PRES - Barometric Pressure VSB - Visibility
WCI - Wind Chill Index E13G22 Wind - East Wind 13 mph/Gusts of 22 mph